• In Uzbekistan
  • List of Countries
  • For 7 days
  • Water Temperature
  • Satellite Maps
  • Weather Map
  • Weather Widgets
  • user-avatar
    Login

    Hourly Weather Duz

    Today, 16 October, Tuesday

    Time Temperature Precipitation Wind Pressure Humidity
    00:00 +28°C° 0 mm 3 mps 754 mmHg 35%
    01:00 +28°C° 0 mm 3 mps 754 mmHg 37%
    02:00 +27°C° 0 mm 3 mps 754 mmHg 37%
    03:00 +27°C° 0 mm 3 mps 754 mmHg 38%
    04:00 +27°C° 0 mm 3 mps 754 mmHg 39%
    05:00 +26°C° 0 mm 3 mps 754 mmHg 39%
    06:00 +26°C° 0 mm 3 mps 754 mmHg 40%
    07:00 +26°C° 0 mm 2 mps 755 mmHg 41%
    08:00 +27°C° 0.1 mm 3 mps 755 mmHg 38%
    09:00 +28°C° 0.1 mm 3 mps 755 mmHg 35%
    10:00 +29°C° 0.1 mm 3 mps 755 mmHg 31%
    11:00 +30°C° 0 mm 3 mps 755 mmHg 30%
    12:00 +31°C° 0 mm 3 mps 755 mmHg 28%
    13:00 +33°C° 0 mm 3 mps 754 mmHg 26%
    14:00 +33°C° 0 mm 3 mps 754 mmHg 26%
    15:00 +33°C° 0 mm 4 mps 753 mmHg 25%
    16:00 +34°C° 0 mm 4 mps 753 mmHg 25%
    17:00 +33°C° 0 mm 5 mps 753 mmHg 29%
    18:00 +32°C° 0 mm 6 mps 753 mmHg 32%
    19:00 +30°C° 0 mm 7 mps 753 mmHg 36%
    20:00 +29°C° 0 mm 7 mps 753 mmHg 40%
    21:00 +28°C° 0 mm 7 mps 753 mmHg 44%
    22:00 +28°C° 0 mm 7 mps 753 mmHg 48%
    23:00 +28°C° 0 mm 7 mps 753 mmHg 51%

    Tomorrow, 17 October, Wednesday

    Time Temperature Precipitation Wind Pressure Humidity
    00:00 +27°C° 0 mm 7 mps 752 mmHg 54%
    01:00 +27°C° 0 mm 7 mps 752 mmHg 58%
    02:00 +27°C° 0 mm 7 mps 751 mmHg 59%
    03:00 +27°C° 0 mm 7 mps 751 mmHg 60%
    04:00 +26°C° 0 mm 7 mps 750 mmHg 61%
    05:00 +26°C° 0 mm 7 mps 750 mmHg 58%
    06:00 +27°C° 0 mm 7 mps 750 mmHg 55%
    07:00 +27°C° 0 mm 7 mps 749 mmHg 53%
    08:00 +28°C° 0 mm 7 mps 749 mmHg 47%
    09:00 +31°C° 0 mm 8 mps 749 mmHg 40%
    10:00 +32°C° 0 mm 8 mps 749 mmHg 34%
    11:00 +34°C° 0 mm 8 mps 749 mmHg 29%
    12:00 +35°C° 0 mm 7 mps 748 mmHg 24%
    13:00 +38°C° 0 mm 7 mps 748 mmHg 18%
    14:00 +38°C° 0 mm 7 mps 747 mmHg 18%
    15:00 +38°C° 0 mm 7 mps 746 mmHg 17%
    16:00 +38°C° 0 mm 7 mps 746 mmHg 16%
    17:00 +35°C° 0 mm 6 mps 746 mmHg 23%
    18:00 +33°C° 0 mm 6 mps 746 mmHg 30%
    19:00 +30°C° 0 mm 5 mps 746 mmHg 36%
    20:00 +30°C° 0 mm 5 mps 747 mmHg 40%
    21:00 +29°C° 0 mm 5 mps 747 mmHg 44%
    22:00 +28°C° 0 mm 5 mps 748 mmHg 48%
    23:00 +27°C° 0 mm 5 mps 747 mmHg 49%

    Day after tomorrow, 18 October, Thursday

    Time Temperature Precipitation Wind Pressure Humidity
    00:00 +27°C° 0 mm 4 mps 747 mmHg 50%
    01:00 +26°C° 0 mm 3 mps 747 mmHg 51%
    02:00 +26°C° 0 mm 4 mps 746 mmHg 51%
    03:00 +25°C° 0 mm 4 mps 746 mmHg 52%
    04:00 +25°C° 0 mm 4 mps 746 mmHg 52%
    05:00 +25°C° 0 mm 4 mps 746 mmHg 52%
    06:00 +23°C° 0 mm 4 mps 746 mmHg 53%
    07:00 +23°C° 0 mm 4 mps 747 mmHg 53%
    08:00 +25°C° 0 mm 5 mps 747 mmHg 49%
    09:00 +26°C° 0 mm 6 mps 747 mmHg 46%
    10:00 +27°C° 0 mm 7 mps 748 mmHg 42%
    11:00 +28°C° 0 mm 7 mps 748 mmHg 40%
    12:00 +28°C° 0 mm 7 mps 747 mmHg 38%
    13:00 +29°C° 0 mm 7 mps 747 mmHg 36%
    14:00 +29°C° 0 mm 6 mps 747 mmHg 37%
    15:00 +29°C° 0 mm 6 mps 747 mmHg 37%
    16:00 +29°C° 0 mm 5 mps 747 mmHg 38%
    17:00 +29°C° 0 mm 4 mps 747 mmHg 39%
    18:00 +28°C° 0 mm 3 mps 748 mmHg 41%
    19:00 +28°C° 0 mm 2 mps 748 mmHg 43%
    20:00 +28°C° 0 mm 2 mps 749 mmHg 44%
    21:00 +27°C° 0 mm 2 mps 749 mmHg 45%
    22:00 +27°C° 0 mm 2 mps 750 mmHg 46%
    23:00 +26°C° 0 mm 2 mps 750 mmHg 47%

    19 October, Friday

    Time Temperature Precipitation Wind Pressure Humidity
    00:00 +26°C° 0 mm 2 mps 750 mmHg 49%
    01:00 +26°C° 0 mm 2 mps 750 mmHg 50%
    02:00 +25°C° 0 mm 2 mps 750 mmHg 52%
    03:00 +25°C° 0 mm 2 mps 750 mmHg 54%
    04:00 +25°C° 0 mm 2 mps 750 mmHg 56%
    05:00 +24°C° 0 mm 2 mps 751 mmHg 57%
    06:00 +24°C° 0 mm 1 mps 751 mmHg 58%
    07:00 +24°C° 0 mm 1 mps 752 mmHg 59%
    08:00 +25°C° 0 mm 1 mps 752 mmHg 55%
    09:00 +26°C° 0 mm 1 mps 753 mmHg 52%
    10:00 +27°C° 0 mm 1 mps 753 mmHg 48%
    11:00 +28°C° 0 mm 1 mps 753 mmHg 45%
    12:00 +29°C° 0 mm 1 mps 753 mmHg 42%
    13:00 +30°C° 0 mm 2 mps 753 mmHg 39%
    14:00 +30°C° 0 mm 2 mps 753 mmHg 38%
    15:00 +30°C° 0 mm 2 mps 753 mmHg 36%
    16:00 +31°C° 0 mm 2 mps 753 mmHg 34%
    17:00 +30°C° 0 mm 2 mps 754 mmHg 36%
    18:00 +30°C° 0 mm 2 mps 754 mmHg 38%
    19:00 +29°C° 0 mm 2 mps 755 mmHg 40%
    20:00 +28°C° 0 mm 3 mps 755 mmHg 43%
    21:00 +28°C° 0 mm 3 mps 756 mmHg 46%
    22:00 +27°C° 0 mm 3 mps 756 mmHg 49%
    23:00 +27°C° 0 mm 3 mps 756 mmHg 53%

    20 October, Saturday

    Time Temperature Precipitation Wind Pressure Humidity
    00:00 +26°C° 0 mm 4 mps 756 mmHg 56%
    01:00 +26°C° 0 mm 4 mps 756 mmHg 59%
    02:00 +25°C° 0 mm 4 mps 757 mmHg 63%
    03:00 +25°C° 0 mm 3 mps 757 mmHg 66%
    04:00 +24°C° 0 mm 3 mps 757 mmHg 70%
    05:00 +23°C° 0 mm 4 mps 757 mmHg 73%
    06:00 +23°C° 0 mm 4 mps 757 mmHg 76%
    07:00 +23°C° 0 mm 4 mps 757 mmHg 79%
    08:00 +25°C° 0 mm 4 mps 758 mmHg 74%
    09:00 +26°C° 0 mm 5 mps 758 mmHg 69%
    10:00 +27°C° 0 mm 5 mps 758 mmHg 64%
    11:00 +28°C° 0 mm 5 mps 758 mmHg 60%
    12:00 +29°C° 0 mm 4 mps 758 mmHg 55%
    13:00 +30°C° 0 mm 4 mps 757 mmHg 50%
    14:00 +30°C° 0 mm 4 mps 757 mmHg 49%
    15:00 +30°C° 0 mm 4 mps 757 mmHg 47%
    16:00 +30°C° 0 mm 4 mps 757 mmHg 46%
    17:00 +30°C° 0 mm 4 mps 757 mmHg 50%
    18:00 +29°C° 0 mm 4 mps 757 mmHg 54%
    19:00 +28°C° 0 mm 4 mps 757 mmHg 58%
    20:00 +28°C° 0 mm 5 mps 757 mmHg 62%
    21:00 +27°C° 0 mm 5 mps 758 mmHg 66%
    22:00 +27°C° 0 mm 5 mps 758 mmHg 71%
    23:00 +26°C° 0 mm 5 mps 758 mmHg 73%

    21 October, Sunday

    Time Temperature Precipitation Wind Pressure Humidity
    00:00 +26°C° 0 mm 4 mps 757 mmHg 75%
    01:00 +26°C° 0 mm 4 mps 757 mmHg 77%
    02:00 +25°C° 0 mm 4 mps 757 mmHg 78%
    03:00 +25°C° 0 mm 4 mps 757 mmHg 80%
    04:00 +25°C° 0 mm 4 mps 757 mmHg 81%
    05:00 +25°C° 0 mm 4 mps 757 mmHg 81%
    06:00 +25°C° 0 mm 4 mps 757 mmHg 82%
    07:00 +23°C° 0 mm 4 mps 757 mmHg 82%
    08:00 +25°C° 0 mm 4 mps 757 mmHg 77%
    09:00 +26°C° 0 mm 4 mps 757 mmHg 71%
    10:00 +27°C° 0 mm 4 mps 758 mmHg 65%
    11:00 +28°C° 0 mm 3 mps 757 mmHg 60%
    12:00 +29°C° 0 mm 3 mps 757 mmHg 55%
    13:00 +30°C° 0 mm 3 mps 757 mmHg 49%
    14:00 +30°C° 0 mm 3 mps 756 mmHg 47%
    15:00 +30°C° 0 mm 3 mps 756 mmHg 45%
    16:00 +31°C° 0 mm 3 mps 756 mmHg 43%
    17:00 +30°C° 0 mm 3 mps 756 mmHg 46%
    18:00 +29°C° 0 mm 4 mps 756 mmHg 50%
    19:00 +29°C° 0 mm 4 mps 756 mmHg 54%
    20:00 +28°C° 0 mm 4 mps 756 mmHg 59%
    21:00 +27°C° 0 mm 4 mps 756 mmHg 64%
    22:00 +27°C° 0 mm 4 mps 757 mmHg 69%
    23:00 +26°C° 0 mm 4 mps 756 mmHg 70%
    Show more